Tracking 31027 objects as of 19-Jul-2025
HD Live streaming from Space Station
objects crossing your sky now

DELTA 1 DEB

Track DELTA 1 DEB now!
10-day predictions


NORAD ID: 13564
Int'l Code: 1978-026FB
Perigee: 792.6 km
Apogee: 1,089.3 km
Inclination: 98.9 °
Period: 103.7 minutes
Semi major axis: 7311 km
RCS: 0.0124 m2 (small)
Launch date: March 5, 1978
Source: United States (US)
Launch site: AIR FORCE WESTERN TEST RANGE (AFWTR)

Note: This is SATELLITE DEBRIS
Your satellite tracking list
IRIDIUM 33 DEB
Track 1 satellite(s)




NASA's NSSDC Master Catalog

Two Line Element Set (TLE):
1 13564U 78026FB  25199.78939836  .00000383  00000-0  29857-3 0  9999
2 13564  98.8601 148.6743 0202921 145.2382 246.4881 13.88530376174477
Source of the keplerian elements: AFSPC